Total_Precipitation_Accumulation
0.16 0.36 0.76 1.25 2.11 2.28 1.80 1.05 0.79 0.61 0.60 0.66 0.66 0.67 0.78 1.03 1.46 2.22 2.14 1.56 1.04 0.96 1.11 1.54 2.07 2.05 2.12 2.01 1.80 1.80 1.76 1.72 1.73 1.79 1.89 1.95 2.04 2.08 2.18 2.28 2.45 2.86 3.11 2.98 2.91 2.89 2.82 2.72 2.86
0.31 0.60 1.03 1.69 2.33 2.08 1.56 0.89 0.66 0.50 0.49 0.50 0.46 0.53 0.72 0.91 0.84 1.24 1.70 1.46 0.95 0.86 0.90 1.10 1.74 2.11 2.28 2.07 1.88 1.81 1.77 1.77 1.70 1.86 1.85 1.88 2.09 2.26 2.40 2.39 2.40 2.58 2.72 2.71 2.79 2.75 2.83 2.72 2.67
0.53 0.81 1.20 1.71 1.47 1.31 1.10 0.73 0.58 0.42 0.50 0.66 0.58 0.53 0.77 1.10 1.00 1.25 1.42 1.04 0.86 0.83 0.88 1.23 1.84 2.07 2.05 1.99 1.86 1.70 1.74 1.84 1.88 1.85 1.77 1.84 2.02 2.26 2.38 2.52 2.56 2.48 2.61 2.68 2.72 2.62 2.77 2.63 2.54
0.62 0.91 1.15 1.11 0.66 0.52 0.56 0.58 0.55 0.55 0.74 0.85 0.73 0.73 0.92 1.02 1.03 1.10 0.99 0.87 0.82 0.94 1.01 1.39 1.86 1.92 1.97 1.92 1.85 1.75 1.81 1.94 1.94 1.88 1.86 1.99 2.03 2.10 2.07 2.16 2.32 2.32 2.52 2.67 2.76 2.68 2.67 2.53 2.52
0.64 0.93 1.21 0.73 0.37 0.36 0.36 0.40 0.55 0.62 0.86 0.92 0.70 0.94 1.36 1.34 1.01 0.92 0.79 0.81 0.85 1.02 1.21 1.54 1.88 1.93 2.04 1.83 1.77 1.79 1.81 1.84 1.87 1.88 1.79 1.89 1.96 2.01 2.00 2.03 2.20 2.36 2.71 2.78 2.71 2.72 2.64 2.63 2.72
0.76 0.85 0.84 0.53 0.29 0.26 0.28 0.34 0.51 0.63 0.81 0.87 0.76 1.16 1.78 1.80 1.39 1.18 1.06 1.22 1.21 1.34 1.48 1.80 2.11 2.21 2.24 1.99 1.88 1.88 1.84 1.79 1.81 1.85 1.82 1.73 1.81 1.89 1.89 1.95 2.07 2.36 2.89 2.84 2.67 2.64 2.53 2.56 2.64
0.69 0.61 0.48 0.28 0.20 0.21 0.26 0.31 0.51 0.66 0.81 1.02 1.00 1.32 1.87 2.24 1.81 1.49 1.44 1.55 1.63 1.66 1.75 1.87 2.12 2.21 2.29 2.14 2.09 1.96 1.86 1.87 1.93 1.95 1.81 1.73 1.77 1.72 1.65 1.74 1.99 2.26 2.80 2.69 2.67 2.58 2.49 2.46 2.61
0.39 0.36 0.29 0.17 0.12 0.18 0.21 0.29 0.44 0.62 0.87 1.00 1.01 1.24 1.60 1.80 1.66 1.69 1.83 1.93 2.07 2.04 1.97 1.82 1.84 1.98 1.92 1.78 1.94 1.90 1.88 2.01 2.09 2.10 1.96 2.00 1.98 1.77 1.77 1.82 2.04 2.31 2.53 2.42 2.38 2.41 2.42 2.42 2.60
0.27 0.29 0.21 0.14 0.08 0.12 0.20 0.35 0.49 0.53 0.70 1.03 1.25 1.11 1.04 1.23 1.63 1.95 2.43 2.52 2.61 2.41 2.01 1.72 1.69 1.84 1.83 1.66 1.70 2.08 2.22 2.25 2.33 2.45 2.46 2.62 2.65 2.18 2.20 1.97 2.21 2.52 2.47 2.38 2.52 2.57 2.65 2.81 2.79
0.17 0.19 0.13 0.08 0.05 0.08 0.19 0.42 0.57 0.71 1.05 1.41 1.57 1.37 1.15 1.24 1.80 2.22 2.52 2.76 2.44 2.43 2.36 2.08 1.86 1.79 1.83 1.68 1.88 2.55 2.54 2.55 2.77 3.02 2.91 3.03 2.84 2.54 1.96 2.10 2.71 2.86 2.86 2.95 3.27 3.44 3.16 3.01 2.93
0.09 0.08 0.06 0.06 0.05 0.09 0.22 0.26 0.34 0.62 1.26 1.67 1.86 1.51 1.29 1.45 1.92 2.47 2.71 2.66 2.41 2.39 2.28 2.35 2.19 2.04 2.02 2.20 2.15 2.42 2.77 2.92 2.98 2.94 2.91 3.02 2.51 2.16 2.08 2.60 3.17 3.08 3.04 3.20 3.52 3.74 3.04 3.13 3.76
0.06 0.06 0.04 0.05 0.06 0.08 0.14 0.23 0.38 0.69 1.19 1.45 1.35 1.21 1.26 1.52 1.84 2.49 2.91 2.83 2.68 2.63 2.52 2.80 2.72 2.66 2.67 2.50 2.49 2.37 2.43 2.47 2.48 2.59 2.47 2.59 2.68 2.61 2.74 3.06 3.15 3.17 3.32 3.66 3.50 3.67 3.59 3.79 3.83
0.05 0.06 0.06 0.06 0.06 0.09 0.13 0.24 0.36 0.62 0.88 0.95 0.88 1.05 1.50 1.63 1.98 2.65 3.23 3.20 3.13 3.02 3.09 3.23 3.27 3.41 3.26 3.05 2.91 2.43 2.45 2.32 2.22 2.24 2.22 2.42 2.78 2.95 3.26 3.13 3.15 2.86 2.98 3.33 3.66 3.68 3.94 4.28 4.19
0.05 0.06 0.07 0.09 0.12 0.12 0.15 0.27 0.43 0.82 0.82 0.75 0.91 1.22 1.60 2.05 2.26 2.72 3.44 3.66 3.57 3.58 3.80 3.78 3.79 3.84 3.69 3.33 3.11 2.83 2.48 2.47 2.22 2.20 2.27 2.75 3.06 3.22 3.51 3.38 3.24 2.89 2.87 3.22 3.55 3.59 3.95 4.12 4.22
0.08 0.11 0.18 0.20 0.20 0.21 0.25 0.65 0.78 0.88 0.84 0.84 1.08 1.34 1.83 2.46 2.73 3.00 3.49 3.86 3.98 4.23 4.43 4.62 4.49 4.20 4.29 3.95 3.22 2.72 2.44 2.26 2.37 2.51 2.57 2.91 3.09 3.46 3.77 3.69 3.25 2.97 3.05 3.25 3.22 3.36 3.89 3.86 3.79
0.14 0.18 0.38 0.33 0.23 0.25 0.37 0.94 0.96 0.92 0.95 1.04 1.26 1.61 1.97 2.46 2.60 2.86 3.31 3.86 4.37 4.76 5.18 5.38 4.95 4.86 4.91 4.61 4.03 3.44 3.09 2.93 2.95 2.96 2.82 2.65 2.86 3.07 3.47 3.24 2.81 2.87 3.06 3.25 3.28 3.23 3.64 3.81 3.85
0.20 0.24 0.37 0.35 0.24 0.24 0.35 0.81 0.81 0.67 1.01 1.41 1.65 1.80 1.97 2.14 2.31 2.51 2.92 3.61 4.43 5.02 5.75 6.14 6.36 5.86 5.48 4.94 4.54 4.00 3.69 3.51 3.25 2.99 2.75 2.47 2.24 2.18 2.60 2.60 2.52 2.54 2.82 2.90 2.56 2.79 3.13 3.37 3.56
0.17 0.24 0.33 0.41 0.29 0.28 0.44 0.72 0.82 0.71 1.00 1.36 1.41 1.67 1.76 1.78 2.01 2.42 2.93 3.48 4.37 5.13 5.86 6.27 6.53 6.03 5.32 5.02 5.00 4.66 4.07 3.62 3.24 2.92 2.74 2.36 2.23 2.02 2.30 2.35 2.20 2.15 2.38 2.50 2.65 2.97 3.04 2.91 3.00
0.10 0.20 0.31 0.32 0.27 0.36 0.56 0.82 0.95 0.93 0.97 1.12 1.25 1.41 1.42 1.46 1.75 2.22 2.87 3.55 4.39 5.50 6.17 6.31 6.08 5.41 4.92 4.51 4.27 4.01 3.76 3.47 2.98 2.59 2.37 2.27 2.19 2.20 2.51 2.31 2.34 2.18 2.22 2.29 2.36 2.61 2.73 2.51 2.70
0.08 0.15 0.25 0.24 0.20 0.24 0.51 0.91 1.03 1.04 1.10 1.09 1.17 1.22 1.14 1.28 1.63 2.22 2.99 3.81 4.51 5.05 5.41 5.50 5.14 4.40 3.93 3.71 3.69 3.42 3.21 2.89 2.67 2.43 2.41 2.10 2.05 2.13 2.08 2.29 2.13 2.07 2.31 2.27 2.35 2.58 2.55 2.30 2.47
0.10 0.13 0.20 0.24 0.21 0.25 0.51 1.09 1.31 1.19 1.14 1.11 1.01 0.98 1.07 1.30 1.84 2.58 3.39 4.17 4.50 4.53 4.32 4.00 3.83 3.46 3.38 3.38 3.22 3.00 2.94 2.67 2.50 2.29 2.23 1.93 1.74 1.78 1.90 1.95 1.91 2.05 1.98 2.17 2.32 2.44 2.65 2.61 2.38
0.11 0.10 0.10 0.13 0.19 0.45 0.60 1.18 1.37 1.33 1.25 1.09 1.08 1.08 1.19 1.48 1.99 2.68 3.22 3.45 3.60 3.53 3.25 3.07 3.00 2.94 2.90 2.83 2.75 2.47 2.34 2.33 2.19 2.11 2.13 2.01 1.78 1.77 1.81 1.83 1.98 2.03 1.89 2.17 1.92 2.10 2.48 2.67 2.42
0.07 0.07 0.10 0.15 0.27 0.49 0.64 0.99 1.35 1.33 1.40 0.98 0.85 0.95 1.06 1.33 1.63 1.82 2.02 2.14 2.26 2.29 2.45 2.52 2.66 2.80 2.71 2.66 2.66 2.61 2.33 2.29 2.27 2.27 2.38 2.25 2.02 1.83 1.66 1.83 2.09 2.16 1.99 2.02 2.07 2.33 2.33 2.37 2.32
0.06 0.08 0.16 0.28 0.47 0.85 0.86 1.02 1.36 1.36 1.26 0.88 0.68 0.71 0.92 1.06 1.10 1.18 1.26 1.36 1.57 1.62 1.84 2.04 2.14 2.29 2.47 2.52 2.37 2.32 2.28 2.36 2.42 2.39 2.24 2.06 1.94 1.85 1.76 1.91 2.15 2.16 2.15 2.11 2.10 2.14 2.15 2.29 2.40
0.07 0.14 0.40 0.79 1.14 1.18 0.75 0.86 1.27 1.20 0.89 0.64 0.55 0.54 0.58 0.73 0.86 1.00 1.11 1.21 1.42 1.37 1.45 1.67 1.74 1.75 1.90 1.94 1.92 2.00 2.17 2.24 2.12 2.04 1.98 1.87 1.65 1.67 1.80 1.89 2.12 2.11 2.10 2.01 2.20 2.23 2.13 2.26 2.32
0.09 0.15 0.30 0.52 0.63 0.81 0.85 1.34 1.53 0.96 0.65 0.51 0.48 0.47 0.47 0.63 0.76 0.85 0.85 0.94 1.08 1.08 1.22 1.33 1.42 1.48 1.54 1.65 1.77 1.74 1.90 1.91 1.82 1.93 1.81 1.71 1.49 1.40 1.52 1.68 1.75 1.84 1.89 1.83 2.27 2.14 2.17 2.29 2.16
0.09 0.10 0.15 0.21 0.31 0.66 1.09 1.42 1.36 0.87 0.73 0.58 0.49 0.49 0.50 0.48 0.61 0.68 0.62 0.63 0.78 0.91 1.04 1.13 1.20 1.32 1.35 1.50 1.59 1.57 1.67 1.77 1.83 1.85 1.74 1.57 1.60 1.45 1.50 1.58 1.81 1.95 2.01 2.07 2.33 2.24 2.21 2.39 2.18
0.11 0.13 0.16 0.21 0.32 0.61 0.99 1.46 1.72 1.27 0.77 0.65 0.58 0.55 0.59 0.50 0.54 0.57 0.57 0.53 0.62 0.78 1.05 1.12 1.14 1.28 1.31 1.41 1.44 1.31 1.49 1.63 1.80 1.77 1.68 1.62 1.64 1.59 1.72 1.81 1.96 2.07 2.04 2.07 2.28 2.23 2.33 2.44 2.32
0.15 0.13 0.16 0.19 0.23 0.40 0.83 1.13 0.99 0.98 0.78 0.81 0.74 0.64 0.61 0.55 0.58 0.56 0.55 0.55 0.53 0.66 0.88 0.96 1.12 1.23 1.29 1.37 1.48 1.54 1.56 1.51 1.66 1.70 1.67 1.70 1.73 1.72 1.79 1.90 2.04 2.06 2.13 2.26 2.36 2.19 2.30 2.43 2.60
0.16 0.17 0.17 0.21 0.24 0.26 0.41 0.64 0.65 0.83 0.79 0.78 0.83 0.76 0.67 0.52 0.49 0.53 0.56 0.61 0.58 0.59 0.71 0.88 1.08 1.23 1.28 1.37 1.52 1.64 1.81 1.77 1.71 1.70 1.75 1.83 1.95 2.03 1.98 2.04 2.10 1.98 2.03 2.25 2.33 2.32 2.36 2.40 2.45